• Em Portugal
  • Lista de países
  • Para 7 dias
  • Temperatura da água
  • Mapas de satélite
  • Mapa do tempo
  • Widgets de tempo
  • user-avatar
    Iniciar Sessão

    Previsão horária em Salta

    Hoje, 16 Dezembro, Sábado

    Tempo Temperatura Precipitação Vento Pressão Humidade
    00:00 +25°C° 0,1 mm 1 m/s 649 mmHg 69%
    01:00 +24°C° 0,1 mm 1 m/s 648 mmHg 69%
    02:00 +24°C° 0 mm 1 m/s 648 mmHg 71%
    03:00 +23°C° 0 mm 1 m/s 648 mmHg 71%
    04:00 +23°C° 0 mm 1 m/s 648 mmHg 72%
    05:00 +23°C° 0 mm 1 m/s 648 mmHg 72%
    06:00 +24°C° 0 mm 1 m/s 648 mmHg 64%
    07:00 +26°C° 0 mm 2 m/s 649 mmHg 57%
    08:00 +28°C° 0 mm 2 m/s 649 mmHg 50%
    09:00 +29°C° 0 mm 3 m/s 649 mmHg 45%
    10:00 +31°C° 0 mm 3 m/s 649 mmHg 41%
    11:00 +33°C° 0 mm 4 m/s 650 mmHg 37%
    12:00 +34°C° 0,1 mm 4 m/s 649 mmHg 35%
    13:00 +35°C° 0,1 mm 4 m/s 649 mmHg 33%
    14:00 +36°C° 0,1 mm 5 m/s 648 mmHg 32%
    15:00 +36°C° 0,1 mm 5 m/s 647 mmHg 32%
    16:00 +35°C° 0,1 mm 4 m/s 646 mmHg 33%
    17:00 +35°C° 0,1 mm 4 m/s 646 mmHg 34%
    18:00 +33°C° 0,1 mm 3 m/s 646 mmHg 40%
    19:00 +29°C° 0,1 mm 2 m/s 646 mmHg 47%
    20:00 +27°C° 0,1 mm 1 m/s 645 mmHg 53%
    21:00 +26°C° 0,1 mm 1 m/s 646 mmHg 54%
    22:00 +26°C° 0,1 mm 1 m/s 647 mmHg 54%
    23:00 +26°C° 0,1 mm 1 m/s 647 mmHg 55%

    Amanhã, 17 Dezembro, Domingo

    Tempo Temperatura Precipitação Vento Pressão Humidade
    00:00 +26°C° 0 mm 2 m/s 647 mmHg 54%
    01:00 +26°C° 0 mm 2 m/s 647 mmHg 53%
    02:00 +25°C° 0 mm 2 m/s 647 mmHg 52%
    03:00 +25°C° 0 mm 2 m/s 647 mmHg 52%
    04:00 +25°C° 0 mm 1 m/s 647 mmHg 53%
    05:00 +24°C° 0 mm 1 m/s 647 mmHg 53%
    06:00 +26°C° 0 mm 1 m/s 648 mmHg 47%
    07:00 +29°C° 0 mm 1 m/s 649 mmHg 41%
    08:00 +31°C° 0 mm 2 m/s 650 mmHg 35%
    09:00 +33°C° 0 mm 3 m/s 651 mmHg 32%
    10:00 +34°C° 0 mm 5 m/s 653 mmHg 29%
    11:00 +36°C° 0 mm 7 m/s 654 mmHg 26%
    12:00 +34°C° 0,6 mm 6 m/s 654 mmHg 34%
    13:00 +33°C° 0,6 mm 6 m/s 653 mmHg 43%
    14:00 +30°C° 0,6 mm 5 m/s 653 mmHg 52%
    15:00 +29°C° 0,5 mm 5 m/s 653 mmHg 55%
    16:00 +28°C° 0,5 mm 5 m/s 653 mmHg 58%
    17:00 +27°C° 0,5 mm 4 m/s 652 mmHg 61%
    18:00 +25°C° 0,2 mm 4 m/s 653 mmHg 66%
    19:00 +24°C° 0,2 mm 3 m/s 653 mmHg 71%
    20:00 +21°C° 0,2 mm 3 m/s 653 mmHg 76%
    21:00 +21°C° 0,1 mm 2 m/s 654 mmHg 77%
    22:00 +20°C° 0,1 mm 2 m/s 654 mmHg 79%
    23:00 +21°C° 0,1 mm 1 m/s 655 mmHg 80%

    Depois de amanhã, 18 Dezembro, Segunda-feira

    Tempo Temperatura Precipitação Vento Pressão Humidade
    00:00 +21°C° 0,2 mm 1 m/s 654 mmHg 80%
    01:00 +21°C° 0,2 mm 1 m/s 654 mmHg 80%
    02:00 +21°C° 0,2 mm 1 m/s 653 mmHg 80%
    03:00 +20°C° 0,3 mm 1 m/s 653 mmHg 81%
    04:00 +20°C° 0,3 mm 1 m/s 653 mmHg 81%
    05:00 +20°C° 0,3 mm 1 m/s 653 mmHg 82%
    06:00 +20°C° 0,1 mm 1 m/s 653 mmHg 78%
    07:00 +21°C° 0,1 mm 1 m/s 654 mmHg 74%
    08:00 +21°C° 0,1 mm 1 m/s 654 mmHg 71%
    09:00 +22°C° 0,2 mm 1 m/s 655 mmHg 67%
    10:00 +24°C° 0,2 mm 2 m/s 655 mmHg 62%
    11:00 +25°C° 0,2 mm 2 m/s 655 mmHg 58%
    12:00 +25°C° 0,6 mm 2 m/s 655 mmHg 58%
    13:00 +26°C° 0,6 mm 2 m/s 654 mmHg 57%
    14:00 +26°C° 0,6 mm 1 m/s 654 mmHg 57%
    15:00 +26°C° 0,2 mm 1 m/s 653 mmHg 56%
    16:00 +26°C° 0,2 mm 1 m/s 652 mmHg 56%
    17:00 +26°C° 0,2 mm 2 m/s 652 mmHg 56%
    18:00 +25°C° 0,1 mm 1 m/s 651 mmHg 60%
    19:00 +24°C° 0,1 mm 1 m/s 651 mmHg 65%
    20:00 +23°C° 0,1 mm 1 m/s 651 mmHg 69%
    21:00 +22°C° 0,3 mm 1 m/s 652 mmHg 71%
    22:00 +22°C° 0,3 mm 1 m/s 652 mmHg 73%
    23:00 +22°C° 0,3 mm 1 m/s 652 mmHg 74%

    19 Dezembro, Terça-feira

    Tempo Temperatura Precipitação Vento Pressão Humidade
    00:00 +22°C° 0,3 mm 1 m/s 651 mmHg 76%
    01:00 +21°C° 0,3 mm 1 m/s 651 mmHg 78%
    02:00 +21°C° 0,3 mm 1 m/s 650 mmHg 80%
    03:00 +21°C° 0,1 mm 1 m/s 650 mmHg 83%
    04:00 +20°C° 0,1 mm 1 m/s 650 mmHg 85%
    05:00 +20°C° 0,1 mm 1 m/s 650 mmHg 87%
    06:00 +21°C° 0 mm 1 m/s 651 mmHg 82%
    07:00 +22°C° 0 mm 1 m/s 651 mmHg 77%
    08:00 +24°C° 0 mm 1 m/s 652 mmHg 71%
    09:00 +25°C° 0 mm 2 m/s 652 mmHg 66%
    10:00 +27°C° 0 mm 2 m/s 652 mmHg 60%
    11:00 +28°C° 0 mm 3 m/s 652 mmHg 55%
    12:00 +29°C° 0,2 mm 3 m/s 651 mmHg 53%
    13:00 +30°C° 0,2 mm 3 m/s 651 mmHg 51%
    14:00 +30°C° 0,2 mm 4 m/s 650 mmHg 49%
    15:00 +30°C° 0,4 mm 3 m/s 650 mmHg 51%
    16:00 +30°C° 0,4 mm 3 m/s 649 mmHg 53%
    17:00 +29°C° 0,4 mm 3 m/s 649 mmHg 54%
    18:00 +28°C° 0,5 mm 3 m/s 649 mmHg 60%
    19:00 +26°C° 0,5 mm 2 m/s 649 mmHg 67%
    20:00 +25°C° 0,5 mm 1 m/s 649 mmHg 73%
    21:00 +24°C° 0,4 mm 1 m/s 650 mmHg 75%
    22:00 +23°C° 0,4 mm 1 m/s 650 mmHg 78%
    23:00 +23°C° 0,4 mm 1 m/s 651 mmHg 80%

    20 Dezembro, Quarta-feira

    Tempo Temperatura Precipitação Vento Pressão Humidade
    00:00 +23°C° 0,4 mm 1 m/s 650 mmHg 81%
    01:00 +23°C° 0,4 mm 1 m/s 650 mmHg 81%
    02:00 +21°C° 0,4 mm 2 m/s 649 mmHg 81%
    03:00 +21°C° 0,7 mm 2 m/s 649 mmHg 81%
    04:00 +22°C° 0,7 mm 1 m/s 649 mmHg 81%
    05:00 +22°C° 0,7 mm 1 m/s 649 mmHg 81%
    06:00 +23°C° 1 mm 1 m/s 650 mmHg 78%
    07:00 +23°C° 1 mm 1 m/s 650 mmHg 75%
    08:00 +24°C° 1 mm 1 m/s 651 mmHg 73%
    09:00 +25°C° 1 mm 1 m/s 651 mmHg 68%
    10:00 +26°C° 1 mm 1 m/s 651 mmHg 64%
    11:00 +27°C° 1 mm 1 m/s 651 mmHg 60%
    12:00 +28°C° 0,3 mm 2 m/s 650 mmHg 57%
    13:00 +28°C° 0,3 mm 2 m/s 649 mmHg 54%
    14:00 +29°C° 0,3 mm 2 m/s 649 mmHg 52%
    15:00 +29°C° 0,1 mm 3 m/s 648 mmHg 52%
    16:00 +29°C° 0,1 mm 3 m/s 648 mmHg 53%
    17:00 +29°C° 0,1 mm 3 m/s 648 mmHg 53%
    18:00 +27°C° 0,1 mm 2 m/s 647 mmHg 60%
    19:00 +25°C° 0,1 mm 2 m/s 647 mmHg 67%
    20:00 +23°C° 0,1 mm 1 m/s 647 mmHg 74%
    21:00 +23°C° 0,1 mm 1 m/s 648 mmHg 73%
    22:00 +23°C° 0,1 mm 1 m/s 648 mmHg 73%
    23:00 +21°C° 0,1 mm 0 m/s 648 mmHg 73%

    21 Dezembro, Quinta-feira

    Tempo Temperatura Precipitação Vento Pressão Humidade
    00:00 +21°C° 0,1 mm 0 m/s 648 mmHg 72%
    01:00 +20°C° 0,1 mm 0 m/s 647 mmHg 72%
    02:00 +20°C° 0,1 mm 0 m/s 647 mmHg 71%
    03:00 +22°C° 0 mm 1 m/s 647 mmHg 72%
    04:00 +22°C° 0 mm 1 m/s 647 mmHg 72%
    05:00 +22°C° 0 mm 1 m/s 646 mmHg 73%
    06:00 +23°C° 0 mm 1 m/s 647 mmHg 66%
    07:00 +25°C° 0 mm 1 m/s 648 mmHg 60%
    08:00 +27°C° 0 mm 1 m/s 649 mmHg 53%
    09:00 +29°C° 0 mm 1 m/s 649 mmHg 48%
    10:00 +30°C° 0 mm 2 m/s 649 mmHg 43%
    11:00 +32°C° 0 mm 2 m/s 649 mmHg 38%
    12:00 +34°C° 0,1 mm 3 m/s 649 mmHg 37%
    13:00 +34°C° 0,1 mm 3 m/s 648 mmHg 37%
    14:00 +35°C° 0,1 mm 3 m/s 648 mmHg 36%
    15:00 +34°C° 0,1 mm 3 m/s 648 mmHg 39%
    16:00 +33°C° 0,1 mm 3 m/s 647 mmHg 43%
    17:00 +32°C° 0,1 mm 4 m/s 647 mmHg 46%
    18:00 +29°C° 0,5 mm 3 m/s 647 mmHg 57%
    19:00 +27°C° 0,5 mm 2 m/s 647 mmHg 67%
    20:00 +25°C° 0,5 mm 1 m/s 647 mmHg 78%
    21:00 +24°C° 0,8 mm 1 m/s 647 mmHg 79%
    22:00 +24°C° 0,8 mm 1 m/s 648 mmHg 80%
    23:00 +23°C° 0,8 mm 1 m/s 648 mmHg 81%
    Mostrar mais